Tracking 17782 objects as of 25-July-2016
HD Live streaming from Space Station
objects crossing your sky now

H-1 R/B(1)

Track H-1 R/B(1) now!
10-day predictions


NORAD ID: 20230
Int'l Code: 1989-070B
Perigee: 194.8 km
Apogee: 6,569.6 km
Inclination: 28.2 °
Period: 159.8 minutes
Semi major axis: 9753 km
RCS: 2.9914 m2 (large)
Launch date: September 5, 1989
Source: Japan (JPN)
Launch site: TANEGASHIMA SPACE CENTER (TNSTA)

Note: This is a ROCKET BODY
Your satellite tracking list
Your tracking list is empty





NASA's NSSDC Master Catalog

Two Line Element Set (TLE):
1 20230U 89070B   16207.27724641  .00179367 -60747-6  10452-2 0  9998
2 20230  28.2157 148.0842 3268074   6.8097 356.7530  9.01328405479091
Source of the keplerian elements: AFSPC

N2YO: 655